Probability
0 0 0 0 0 0 0 0 0 0 0 0 0 0 0 0 0 0 0 0 0 0 0 0 0 0 0 0 0 0 0 0 0 3 0 0 0 0 0 0 0 0 0 0
0 0 0 0 0 0 0 0 0 0 0 0 0 0 0 0 0 0 0 0 0 0 0 0 0 0 0 0 0 0 0 0 0 0 0 0 0 0 0 0 0 0 0 0
0 0 0 0 0 0 0 0 0 0 0 0 0 0 0 0 0 0 0 0 0 0 0 0 0 0 0 0 0 0 0 0 0 0 0 0 0 0 0 0 0 0 0 0
0 0 0 0 0 0 0 0 0 0 0 0 0 0 0 0 0 0 0 0 0 0 0 0 0 0 0 0 0 0 0 0 0 0 0 0 0 0 0 0 0 0 0 0
0 0 0 0 0 0 0 0 0 0 0 0 0 0 0 0 0 0 0 0 0 0 0 0 0 0 0 0 0 0 0 0 0 0 0 0 0 0 0 0 0 0 0 0
0 0 0 0 0 0 0 0 0 0 0 0 0 0 0 0 0 0 0 0 0 0 0 0 0 0 0 0 0 0 0 0 0 0 0 0 0 0 0 0 0 0 0 0
0 0 0 0 0 0 0 0 0 0 0 0 0 0 0 0 0 0 0 0 0 0 0 0 0 0 0 0 0 0 0 0 0 0 0 0 0 0 0 0 0 0 0 0
0 0 0 0 0 0 0 0 0 0 0 0 0 0 0 0 0 0 0 0 0 0 0 0 0 0 0 0 0 0 0 0 0 0 0 0 0 0 0 0 0 0 0 0
0 0 0 0 0 0 0 0 0 0 0 0 0 0 0 0 0 0 0 0 0 0 0 0 0 0 0 0 0 0 0 0 0 0 0 0 0 0 0 0 0 0 0 0
0 0 0 0 0 0 0 0 0 0 0 0 0 0 0 0 0 0 0 0 0 0 0 0 0 0 0 0 0 0 0 0 0 0 0 0 0 0 0 0 0 0 0 0
0 0 0 0 0 0 0 0 0 0 0 0 0 0 0 0 0 0 0 0 0 0 0 0 0 0 0 0 0 0 0 0 0 0 0 0 0 0 0 0 0 0 0 0
0 0 0 0 0 0 0 0 0 0 0 0 0 0 0 0 0 0 0 0 0 0 0 0 0 0 0 0 0 0 0 0 0 0 0 0 0 0 0 0 0 0 0 0
0 0 0 0 0 0 0 0 0 0 0 0 0 0 0 0 0 0 0 0 0 0 0 0 0 0 0 0 0 0 0 0 0 0 0 0 0 0 0 0 0 0 0 0
0 0 0 0 0 0 0 0 0 0 0 0 0 0 0 0 0 0 0 0 0 0 0 0 0 0 0 0 0 0 0 0 0 0 0 0 0 0 0 0 0 0 0 0
0 0 0 0 0 0 0 0 0 0 0 0 0 0 0 0 0 0 0 0 0 0 0 0 0 0 0 0 0 0 0 0 0 0 0 0 0 0 0 0 0 0 0 0
0 0 0 0 0 0 0 0 0 0 0 0 0 0 0 0 0 0 0 0 0 0 0 0 0 0 0 0 0 0 0 0 0 0 0 0 0 0 0 0 0 0 0 0
0 0 0 0 0 0 0 0 0 0 0 0 0 0 0 0 0 0 0 0 0 0 0 0 0 0 0 0 0 0 0 0 0 0 0 0 0 0 0 0 0 0 0 0
0 0 0 0 0 0 0 0 0 0 0 0 0 0 0 0 0 0 0 0 0 0 0 0 0 0 0 0 0 0 0 0 0 0 0 0 0 0 0 0 0 0 0 0
0 0 0 0 0 0 0 0 0 0 0 0 0 0 0 0 0 0 0 0 0 0 0 0 0 0 0 0 0 0 0 0 0 0 0 0 0 0 0 0 0 0 0 0
0 0 0 0 0 0 0 0 0 0 0 0 0 0 0 0 0 0 0 0 0 0 0 0 0 0 0 0 0 0 0 0 0 0 0 0 0 0 0 0 0 0 0 0
0 0 0 0 0 0 0 0 0 0 0 0 0 0 0 0 0 0 0 0 0 0 0 0 0 0 0 0 0 0 0 0 0 0 0 0 0 0 0 0 0 0 0 0
0 0 0 0 0 0 0 0 0 0 0 0 0 0 0 0 0 0 0 0 0 0 0 0 0 0 0 0 0 0 0 0 0 0 0 0 0 0 0 0 0 0 0 0
0 0 0 0 0 0 0 0 0 0 0 0 0 0 0 0 0 0 0 0 0 0 0 0 0 0 0 0 0 0 0 0 0 0 0 0 0 0 0 0 0 0 0 0
0 0 0 0 0 0 0 0 0 0 0 0 0 0 0 0 0 0 0 0 0 0 0 0 0 0 0 0 0 0 0 0 0 0 0 0 0 0 0 0 0 0 0 0
0 0 0 0 0 0 0 0 0 0 0 0 0 0 0 0 0 0 0 0 0 0 0 0 0 0 0 0 0 0 0 0 0 0 0 0 0 0 0 0 0 0 0 0
0 0 0 0 0 0 0 0 0 0 0 0 0 0 0 0 0 0 0 0 0 0 0 0 0 0 0 0 0 0 0 0 0 0 0 0 0 0 0 0 0 0 0 0
Height
5714 5712 5709 5705 5703 5700 5697 5694 5691 5688 5684 5681 5680 5679 5677 5673 5670 5668 5665 5662 5660 5658 5655 5653 5650 5647 5645 5644 5644 5644 5645 5645 5645 5646 5648 5650 5652 5654 5657 5660 5665 5670 5675 5680
5708 5705 5702 5698 5695 5692 5689 5686 5683 5680 5675 5673 5671 5671 5668 5664 5660 5657 5654 5651 5648 5645 5642 5640 5637 5633 5631 5630 5630 5629 5629 5629 5628 5629 5630 5631 5634 5636 5639 5643 5647 5652 5657 5663
5700 5698 5694 5691 5688 5684 5681 5677 5674 5671 5668 5664 5662 5662 5660 5656 5651 5647 5644 5639 5636 5632 5630 5627 5623 5620 5618 5616 5615 5614 5614 5613 5612 5612 5612 5613 5615 5617 5621 5625 5629 5634 5640 5646
5693 5690 5687 5683 5680 5676 5673 5669 5665 5661 5658 5656 5653 5649 5652 5647 5642 5637 5633 5628 5623 5620 5616 5613 5610 5607 5605 5603 5601 5600 5598 5597 5596 5595 5595 5596 5597 5600 5604 5607 5611 5616 5621 5628
5684 5682 5679 5675 5672 5668 5664 5660 5657 5653 5649 5647 5645 5639 5642 5638 5632 5627 5622 5617 5611 5607 5604 5600 5597 5594 5592 5590 5587 5585 5584 5583 5582 5580 5580 5581 5582 5584 5586 5590 5594 5600 5605 5611
5676 5673 5670 5667 5663 5659 5655 5652 5648 5644 5641 5639 5636 5631 5630 5627 5621 5616 5611 5605 5600 5595 5591 5588 5584 5581 5579 5576 5574 5571 5570 5568 5567 5567 5566 5566 5567 5568 5571 5574 5579 5585 5590 5596
5667 5665 5661 5658 5655 5651 5647 5643 5638 5634 5631 5629 5626 5621 5621 5617 5611 5605 5599 5594 5588 5584 5579 5576 5572 5569 5566 5564 5561 5558 5556 5556 5555 5554 5553 5553 5554 5555 5557 5561 5566 5571 5576 5582
5656 5655 5652 5648 5645 5642 5638 5634 5630 5624 5620 5618 5616 5612 5613 5608 5600 5593 5588 5582 5577 5572 5567 5563 5560 5556 5553 5551 5549 5546 5544 5544 5542 5541 5541 5541 5541 5543 5545 5549 5554 5559 5564 5569
5645 5644 5642 5639 5635 5632 5628 5625 5620 5615 5609 5606 5605 5603 5603 5598 5590 5583 5577 5571 5566 5561 5556 5552 5548 5544 5541 5539 5537 5535 5533 5532 5530 5529 5529 5529 5530 5532 5535 5538 5542 5547 5552 5558
5634 5632 5632 5629 5626 5623 5619 5615 5610 5604 5598 5593 5592 5592 5591 5586 5579 5573 5566 5560 5555 5550 5546 5541 5537 5534 5530 5527 5525 5523 5521 5520 5518 5517 5518 5519 5520 5521 5524 5527 5532 5537 5542 5547
5623 5621 5620 5618 5617 5613 5609 5606 5599 5594 5589 5583 5578 5583 5582 5575 5568 5562 5556 5550 5545 5540 5535 5531 5527 5522 5518 5515 5513 5512 5510 5508 5507 5506 5507 5508 5509 5511 5513 5516 5521 5526 5531 5536
5612 5609 5608 5608 5606 5602 5598 5595 5590 5585 5580 5572 5566 5570 5572 5565 5557 5551 5546 5540 5534 5529 5525 5520 5516 5512 5508 5505 5502 5500 5499 5497 5496 5496 5496 5497 5499 5501 5503 5506 5511 5516 5521 5527
5600 5597 5596 5595 5596 5592 5587 5584 5579 5573 5568 5562 5556 5558 5559 5552 5545 5540 5535 5529 5524 5519 5515 5510 5505 5502 5498 5494 5492 5490 5489 5487 5487 5486 5487 5487 5489 5491 5493 5497 5502 5506 5512 5517
5587 5586 5586 5585 5583 5578 5575 5574 5569 5562 5556 5551 5548 5545 5547 5540 5533 5529 5524 5518 5514 5509 5504 5500 5496 5492 5488 5485 5482 5480 5479 5478 5477 5477 5478 5478 5480 5482 5485 5489 5493 5498 5503 5508
5575 5573 5573 5572 5571 5566 5564 5562 5558 5552 5547 5540 5538 5534 5534 5528 5521 5517 5513 5508 5504 5499 5494 5490 5486 5482 5479 5475 5473 5470 5469 5469 5468 5468 5469 5469 5471 5474 5477 5481 5485 5489 5494 5499
5563 5561 5559 5559 5559 5553 5551 5552 5548 5542 5537 5530 5525 5524 5523 5515 5510 5506 5501 5497 5493 5488 5484 5480 5476 5472 5469 5466 5463 5461 5460 5459 5459 5459 5460 5461 5462 5465 5469 5473 5477 5481 5486 5491
5553 5550 5546 5545 5546 5539 5539 5544 5537 5531 5527 5521 5514 5513 5509 5504 5500 5495 5491 5486 5482 5478 5474 5470 5466 5462 5459 5456 5454 5452 5451 5450 5450 5450 5451 5453 5454 5457 5461 5465 5469 5474 5479 5484
5542 5539 5534 5531 5530 5525 5533 5530 5525 5519 5516 5511 5504 5501 5497 5492 5489 5485 5481 5476 5472 5468 5464 5460 5456 5453 5450 5447 5445 5443 5442 5441 5441 5442 5443 5445 5447 5450 5454 5458 5462 5467 5472 5477
5530 5527 5522 5518 5514 5511 5520 5518 5511 5504 5503 5502 5494 5490 5485 5481 5478 5476 5470 5465 5461 5458 5454 5450 5447 5444 5441 5438 5436 5434 5433 5432 5433 5434 5435 5437 5440 5444 5448 5451 5455 5460 5465 5471
5518 5515 5511 5506 5501 5499 5507 5505 5498 5492 5490 5491 5483 5478 5474 5470 5467 5466 5461 5456 5452 5448 5444 5441 5437 5435 5432 5429 5427 5426 5425 5425 5425 5426 5428 5430 5433 5437 5441 5444 5448 5453 5458 5464
5504 5501 5498 5494 5488 5487 5494 5490 5485 5481 5479 5476 5471 5467 5463 5460 5456 5454 5450 5446 5442 5438 5434 5431 5428 5426 5423 5421 5419 5419 5418 5418 5418 5419 5421 5423 5426 5430 5434 5438 5442 5447 5452 5458
5490 5488 5486 5483 5478 5480 5481 5475 5473 5469 5465 5462 5458 5455 5452 5449 5445 5442 5439 5435 5432 5428 5425 5421 5419 5417 5415 5413 5412 5411 5412 5412 5412 5413 5415 5417 5420 5423 5428 5432 5437 5442 5446 5451
5477 5477 5473 5471 5471 5470 5466 5463 5459 5456 5453 5450 5446 5443 5440 5437 5434 5431 5428 5424 5421 5418 5414 5411 5409 5408 5406 5404 5404 5404 5405 5405 5406 5407 5409 5411 5414 5417 5421 5425 5430 5435 5440 5446
5464 5463 5460 5458 5460 5457 5453 5450 5447 5444 5441 5438 5435 5432 5428 5425 5423 5420 5417 5413 5410 5407 5404 5401 5399 5398 5397 5396 5395 5395 5396 5397 5399 5400 5402 5405 5407 5411 5415 5419 5424 5429 5434 5440
5453 5450 5447 5445 5446 5443 5441 5438 5435 5432 5429 5426 5423 5420 5417 5413 5411 5408 5405 5402 5399 5396 5393 5391 5389 5389 5388 5387 5387 5387 5387 5389 5391 5393 5395 5398 5401 5404 5409 5413 5418 5423 5428 5434
5442 5438 5435 5433 5433 5429 5428 5426 5423 5420 5417 5414 5411 5409 5406 5402 5399 5396 5394 5391 5388 5385 5383 5381 5380 5379 5379 5378 5378 5379 5379 5381 5383 5386 5388 5391 5394 5398 5402 5407 5412 5417 5423 5429
Wind_Speed
28 29 29 30 31 33 34 35 35 35 36 37 36 35 35 38 41 43 44 45 46 47 48 49 50 51 51 52 52 51 54 55 56 57 58 59 59 58 60 61 63 62 62 61
30 31 31 32 34 34 35 36 36 36 38 39 37 35 36 38 41 43 44 45 47 47 48 49 49 50 51 51 51 51 51 52 55 57 58 58 59 58 59 60 62 63 63 62
32 33 34 34 35 36 36 37 37 38 38 39 39 36 36 38 40 42 44 46 47 48 49 50 50 49 50 50 50 51 51 52 53 54 56 57 58 58 58 59 61 62 62 62
35 35 36 36 36 38 37 38 39 39 40 39 40 41 37 39 39 42 44 46 48 49 50 50 50 49 49 50 51 50 50 51 51 52 53 54 55 55 56 57 59 61 62 62
37 37 37 37 38 38 39 39 40 41 41 41 41 43 40 40 42 44 46 47 48 49 49 49 50 50 49 50 51 50 49 49 50 50 51 50 50 51 53 54 56 59 60 61
39 39 39 39 39 40 41 41 42 42 42 43 43 44 44 43 45 46 47 48 49 49 49 48 48 49 49 49 48 48 48 47 47 47 48 49 48 48 49 50 53 56 57 59
40 40 40 40 40 41 42 42 44 45 45 45 45 47 45 45 46 47 47 48 49 49 49 48 48 47 48 47 47 46 46 45 45 45 46 46 46 46 47 47 50 53 54 56
43 41 41 41 41 42 42 43 44 46 48 47 47 48 46 45 46 47 47 48 48 48 48 47 46 46 46 46 45 45 44 44 45 45 45 45 44 44 45 46 47 50 51 52
44 43 42 42 42 42 43 43 44 46 49 50 49 49 47 46 46 47 48 48 48 48 48 47 46 45 44 43 43 44 43 43 43 43 43 43 42 41 42 44 45 46 49 51
44 45 44 43 43 42 43 44 45 46 49 52 51 50 49 47 46 47 48 48 48 47 47 46 45 44 43 43 43 43 43 42 41 41 41 41 40 40 41 43 43 44 46 48
45 46 45 45 43 44 44 45 46 47 49 51 53 51 49 47 47 47 47 47 48 47 46 45 44 43 42 42 42 42 40 40 39 40 39 38 39 39 41 43 43 43 44 45
45 47 47 46 45 45 46 46 47 48 49 50 54 53 48 47 46 46 46 47 47 47 45 44 43 42 41 41 41 40 39 38 37 36 36 36 36 37 40 42 42 42 43 44
46 47 48 48 47 46 47 47 48 49 51 52 53 54 49 48 46 46 47 47 47 46 45 44 42 42 41 40 39 38 36 36 35 34 33 33 34 35 38 39 40 41 41 42
48 49 48 48 47 48 48 48 48 50 52 53 53 53 49 47 48 48 48 48 47 46 45 44 42 41 39 39 39 37 35 35 35 34 33 32 33 34 36 37 39 40 41 41
48 50 49 48 47 48 48 48 49 50 50 52 52 52 49 48 49 49 48 48 47 46 44 43 41 40 38 37 37 37 35 34 35 34 34 32 33 34 35 36 37 38 39 40
48 50 50 50 48 48 49 48 47 48 49 51 52 51 47 48 49 49 48 47 46 45 43 42 40 39 38 36 36 35 34 34 34 33 33 32 32 33 34 35 36 37 38 38
48 49 50 51 48 50 50 46 46 47 48 49 51 50 48 48 48 47 46 45 44 43 42 41 39 38 38 37 36 35 33 31 32 32 31 31 31 31 32 34 34 34 35 36
48 49 50 50 50 52 49 47 47 48 48 48 49 48 48 48 47 45 45 44 43 42 42 40 39 37 36 36 35 34 32 31 31 30 30 30 30 31 32 33 33 34 34 35
48 49 50 51 52 53 49 46 46 47 49 47 48 48 48 47 46 45 44 44 43 42 41 40 38 37 36 35 34 33 32 31 30 30 29 29 30 31 31 32 32 33 34 34
48 49 50 51 52 53 49 46 46 49 50 46 47 47 47 46 45 43 42 42 41 41 41 40 38 36 35 34 33 31 29 29 29 29 29 29 30 30 30 31 31 32 34 34
49 49 50 50 51 52 48 47 48 49 49 47 47 47 46 45 44 43 42 41 42 42 41 40 38 36 34 32 31 29 27 26 25 25 26 27 29 29 29 31 31 31 33 33
49 50 50 49 51 50 47 48 48 48 48 48 48 47 46 45 43 42 42 42 42 42 41 39 36 34 33 31 29 28 26 25 24 23 23 25 27 28 28 29 29 30 32 33
49 49 49 50 50 49 48 49 48 48 48 48 48 47 45 45 44 43 42 42 42 41 40 38 35 33 31 30 29 28 26 25 24 24 24 25 25 27 28 29 30 29 30 31
48 47 49 50 49 48 48 48 47 48 48 48 48 46 46 45 44 43 42 42 42 41 39 36 34 32 30 30 30 28 27 25 25 25 25 26 26 27 29 29 30 30 30 31
48 48 49 49 47 47 47 47 47 48 48 48 46 45 45 45 43 43 42 41 41 39 37 34 32 31 30 29 29 29 28 26 26 25 25 26 26 27 28 30 29 30 30 32
45 45 46 47 45 46 46 46 47 47 47 46 45 44 44 44 43 42 41 40 39 37 34 33 31 31 30 29 29 29 28 27 26 27 27 27 27 28 28 30 30 30 30 32
Wind_Direction
300 300 300 298 298 298 297 297 296 295 292 291 289 288 286 286 287 287 286 285 284 283 283 283 282 280 278 275 271 270 270 270 268 266 264 261 259 258 256 254 250 248 248 245
299 299 300 299 299 299 299 298 298 296 294 293 292 291 291 291 291 290 289 288 287 287 286 285 284 283 280 276 274 273 272 271 270 268 266 263 261 258 256 254 250 247 246 244
299 300 300 300 300 299 300 299 299 298 296 295 295 293 293 293 293 293 293 293 291 289 288 287 286 285 282 278 277 276 273 272 270 269 267 264 262 258 255 253 250 245 244 243
298 299 300 300 300 299 300 300 299 299 299 297 297 296 296 297 297 297 297 296 294 292 291 289 287 285 283 280 278 278 276 273 271 269 267 265 263 257 254 251 248 244 243 241
297 298 298 299 300 299 300 299 299 299 299 298 299 298 300 301 300 299 299 299 296 295 294 292 289 286 284 283 280 278 277 275 272 269 266 264 262 258 253 249 246 242 241 240
296 297 297 298 298 298 298 298 297 297 298 298 299 299 301 303 302 302 301 300 298 297 296 295 292 288 286 284 282 281 277 276 274 269 266 264 262 258 252 248 244 241 240 238
294 295 295 296 296 296 297 298 298 298 298 299 299 299 303 305 305 304 303 301 299 299 298 296 293 291 288 284 283 282 279 276 273 270 267 265 262 258 253 247 243 240 239 238
294 294 294 294 294 295 296 297 298 298 299 299 299 300 304 306 306 305 304 303 302 300 299 298 295 292 288 286 284 282 279 277 274 271 268 265 262 257 252 247 242 240 239 237
292 292 292 293 294 295 296 296 297 298 298 299 300 300 302 305 306 305 304 304 303 302 301 299 297 294 290 286 284 281 279 276 275 272 267 263 259 256 251 245 241 239 239 237
290 290 291 291 293 294 295 297 298 299 300 300 301 303 306 307 307 305 304 303 303 302 300 299 298 294 291 286 283 281 279 277 274 271 266 261 258 255 250 244 240 239 238 237
289 289 289 290 291 293 295 297 298 297 298 300 302 304 308 307 306 305 303 302 303 302 300 299 297 294 291 287 282 281 280 277 274 270 264 262 259 254 248 243 241 239 237 236
287 287 288 290 291 292 294 296 297 297 298 298 299 303 307 305 304 303 302 301 301 302 301 299 297 295 291 287 283 280 278 276 272 268 264 262 258 252 247 243 240 238 234 235
286 287 289 290 292 293 293 295 296 296 296 297 298 303 306 304 302 301 300 300 301 301 301 299 297 295 291 288 284 279 277 274 270 266 264 262 258 252 247 242 238 236 235 235
283 285 287 290 292 292 292 294 295 295 295 297 299 301 303 302 301 300 299 299 300 300 299 298 296 294 291 289 285 279 276 272 269 265 263 261 257 251 245 240 237 235 236 234
282 284 286 288 290 290 290 292 293 294 296 297 300 300 303 301 299 300 299 298 298 299 298 297 295 292 290 288 285 280 276 271 268 265 263 259 254 248 241 238 237 235 235 231
281 283 285 287 289 289 288 291 293 294 295 296 298 299 301 299 299 300 299 298 298 298 297 296 294 291 289 288 285 280 277 272 267 265 262 256 251 245 241 239 238 236 232 230
278 282 285 286 288 286 288 294 293 293 295 296 297 300 299 298 299 299 298 297 296 296 297 297 295 292 290 288 285 282 278 272 267 264 260 254 248 241 240 239 239 235 232 230
278 282 284 286 286 285 292 293 293 293 294 294 296 298 298 297 298 298 298 297 296 297 297 298 296 292 290 288 285 282 278 272 266 261 257 251 245 240 238 239 237 234 230 228
278 281 283 284 285 287 290 294 295 294 293 295 296 297 296 297 297 298 297 297 297 297 297 298 297 293 291 289 285 281 278 272 265 260 255 250 245 241 239 239 236 234 230 225
276 279 280 282 284 288 293 294 293 293 293 295 294 295 296 296 297 297 296 295 296 296 297 297 295 293 290 288 285 281 277 270 265 260 255 250 244 239 235 234 232 231 228 224
277 277 279 281 284 288 293 294 294 293 296 295 294 295 295 295 297 296 295 294 295 296 297 295 294 291 289 286 283 279 276 269 264 260 254 248 241 237 233 230 227 226 225 226
276 277 279 281 282 288 292 291 292 293 293 294 295 294 294 295 295 295 294 294 295 296 296 294 292 289 287 284 280 276 272 265 261 258 252 246 240 236 230 227 224 223 224 225
275 277 279 279 283 286 287 288 289 290 291 292 293 293 292 293 294 293 293 293 293 294 294 293 290 286 283 280 277 272 268 262 257 255 251 244 238 234 230 228 225 224 223 222
275 276 278 280 282 283 284 285 286 286 288 290 292 292 291 291 292 292 292 292 292 292 292 290 287 283 281 277 273 272 267 260 255 252 249 243 237 234 229 225 222 222 222 220
276 278 279 280 282 281 281 283 284 285 288 290 290 291 290 290 291 292 292 292 291 291 290 287 284 281 279 276 272 268 264 258 252 249 246 242 237 231 226 222 221 222 219 216
278 279 279 281 282 281 281 282 283 286 288 289 289 289 289 290 290 291 291 291 291 290 286 284 282 280 279 275 269 264 260 256 251 246 243 239 235 231 227 222 221 219 215 212